Year,Month,Day,Hour,Minute,Value (Times are PST for temperature in C)
2013,05,07,00,00,15.20
2013,05,07,00,01,15.10
2013,05,07,00,02,15.10
2013,05,07,00,03,15.10
2013,05,07,00,04,15.00
2013,05,07,00,05,15.00
2013,05,07,00,06,14.90
2013,05,07,00,07,14.90
2013,05,07,00,08,14.80
2013,05,07,00,09,14.80
2013,05,07,00,10,14.80
2013,05,07,00,11,14.70
2013,05,07,00,12,14.70
2013,05,07,00,13,14.70
2013,05,07,00,14,14.60
2013,05,07,00,15,14.60
2013,05,07,00,16,14.60
2013,05,07,00,17,14.60
2013,05,07,00,18,14.60
2013,05,07,00,19,14.60
2013,05,07,00,20,14.60
2013,05,07,00,21,14.60
2013,05,07,00,22,14.60
2013,05,07,00,23,14.70
2013,05,07,00,24,14.70
2013,05,07,00,25,14.70
2013,05,07,00,26,14.70
2013,05,07,00,27,14.60
2013,05,07,00,28,14.60
2013,05,07,00,29,14.60
2013,05,07,00,30,14.60
2013,05,07,00,31,14.50
2013,05,07,00,32,14.40
2013,05,07,00,33,14.40
2013,05,07,00,34,14.40
2013,05,07,00,35,14.30
2013,05,07,00,36,14.30
2013,05,07,00,37,14.30
2013,05,07,00,38,14.20
2013,05,07,00,39,14.20
2013,05,07,00,40,14.20
2013,05,07,00,41,14.20
2013,05,07,00,42,14.10
2013,05,07,00,43,14.10
2013,05,07,00,44,14.10
2013,05,07,00,45,14.20
2013,05,07,00,46,14.20
2013,05,07,00,47,14.20
2013,05,07,00,48,14.20
2013,05,07,00,49,14.20
2013,05,07,00,50,14.20
2013,05,07,00,51,14.30
2013,05,07,00,52,14.30
2013,05,07,00,53,14.20
2013,05,07,00,54,14.20
2013,05,07,00,55,14.20
2013,05,07,00,56,14.10
2013,05,07,00,57,14.10
2013,05,07,00,58,14.10
2013,05,07,00,59,14.00
2013,05,07,01,00,14.00
2013,05,07,01,01,13.90
2013,05,07,01,02,13.90
2013,05,07,01,03,13.90
2013,05,07,01,04,13.90
2013,05,07,01,05,13.90
2013,05,07,01,06,14.00
2013,05,07,01,07,14.00
2013,05,07,01,08,14.00
2013,05,07,01,09,14.10
2013,05,07,01,10,14.10
2013,05,07,01,11,14.10
2013,05,07,01,12,14.10
2013,05,07,01,13,14.10
2013,05,07,01,14,14.10
2013,05,07,01,15,14.10
2013,05,07,01,16,14.10
2013,05,07,01,17,14.00
2013,05,07,01,18,14.00
2013,05,07,01,19,14.00
2013,05,07,01,20,14.00
2013,05,07,01,21,14.00
2013,05,07,01,22,14.00
2013,05,07,01,23,13.90
2013,05,07,01,24,13.90
2013,05,07,01,25,13.90
2013,05,07,01,26,13.90
2013,05,07,01,27,13.90
2013,05,07,01,28,13.90
2013,05,07,01,29,13.90
2013,05,07,01,30,13.90
2013,05,07,01,31,13.90
2013,05,07,01,32,13.80
2013,05,07,01,33,13.80
2013,05,07,01,34,13.80
2013,05,07,01,35,13.80
2013,05,07,01,36,13.80
2013,05,07,01,37,13.80
2013,05,07,01,38,13.80
2013,05,07,01,39,13.80
2013,05,07,01,40,13.80
2013,05,07,01,41,13.80
2013,05,07,01,42,13.70
2013,05,07,01,43,13.70
2013,05,07,01,44,13.70
2013,05,07,01,45,13.70
2013,05,07,01,46,13.70
2013,05,07,01,47,13.70
2013,05,07,01,48,13.70
2013,05,07,01,49,13.70
2013,05,07,01,50,13.70
2013,05,07,01,51,13.70
2013,05,07,01,52,13.70
2013,05,07,01,53,13.70
2013,05,07,01,54,13.70
2013,05,07,01,55,13.60
2013,05,07,01,56,13.60
2013,05,07,01,57,13.60
2013,05,07,01,58,13.50
2013,05,07,01,59,13.50
2013,05,07,02,00,13.40
2013,05,07,02,01,13.30
2013,05,07,02,02,13.30
2013,05,07,02,03,13.30
2013,05,07,02,04,13.20
2013,05,07,02,05,13.20
2013,05,07,02,06,13.20
2013,05,07,02,07,13.20
2013,05,07,02,08,13.30
2013,05,07,02,09,13.30
2013,05,07,02,10,13.30
2013,05,07,02,11,13.30
2013,05,07,02,12,13.30
2013,05,07,02,13,13.30
2013,05,07,02,14,13.30
2013,05,07,02,15,13.40
2013,05,07,02,16,13.40
2013,05,07,02,17,13.40
2013,05,07,02,18,13.40
2013,05,07,02,19,13.40
2013,05,07,02,20,13.40
2013,05,07,02,21,13.40
2013,05,07,02,22,13.40
2013,05,07,02,23,13.40
2013,05,07,02,24,13.40
2013,05,07,02,25,13.40
2013,05,07,02,26,13.40
2013,05,07,02,27,13.40
2013,05,07,02,28,13.40
2013,05,07,02,29,13.50
2013,05,07,02,30,13.50
2013,05,07,02,31,13.40
2013,05,07,02,32,13.40
2013,05,07,02,33,13.40
2013,05,07,02,34,13.40
2013,05,07,02,35,13.40
2013,05,07,02,36,13.40
2013,05,07,02,37,13.40
2013,05,07,02,38,13.40
2013,05,07,02,39,13.40
2013,05,07,02,40,13.40
2013,05,07,02,41,13.40
2013,05,07,02,42,13.40
2013,05,07,02,43,13.40
2013,05,07,02,44,13.40
2013,05,07,02,45,13.40
2013,05,07,02,46,13.40
2013,05,07,02,47,13.40
2013,05,07,02,48,13.50
2013,05,07,02,49,13.50
2013,05,07,02,50,13.50
2013,05,07,02,51,13.50
2013,05,07,02,52,13.40
2013,05,07,02,53,13.40
2013,05,07,02,54,13.30
2013,05,07,02,55,13.30
2013,05,07,02,56,13.30
2013,05,07,02,57,13.30
2013,05,07,02,58,13.20
2013,05,07,02,59,13.20
2013,05,07,03,00,13.20
2013,05,07,03,01,13.10
2013,05,07,03,02,13.10
2013,05,07,03,03,13.10
2013,05,07,03,04,13.00
2013,05,07,03,05,13.00
2013,05,07,03,06,12.90
2013,05,07,03,07,12.90
2013,05,07,03,08,12.90
2013,05,07,03,09,12.80
2013,05,07,03,10,12.80
2013,05,07,03,11,12.80
2013,05,07,03,12,12.80
2013,05,07,03,13,12.80
2013,05,07,03,14,12.80
2013,05,07,03,15,12.70
2013,05,07,03,16,12.70
2013,05,07,03,17,12.60
2013,05,07,03,18,12.50
2013,05,07,03,19,12.50
2013,05,07,03,20,12.40
2013,05,07,03,21,12.30
2013,05,07,03,22,12.20
2013,05,07,03,23,12.10
2013,05,07,03,24,12.00
2013,05,07,03,25,11.90
2013,05,07,03,26,11.80
2013,05,07,03,27,11.80
2013,05,07,03,28,11.80
2013,05,07,03,29,11.70
2013,05,07,03,30,11.70
2013,05,07,03,31,11.70
2013,05,07,03,32,11.70
2013,05,07,03,33,11.60
2013,05,07,03,34,11.60
2013,05,07,03,35,11.60
2013,05,07,03,36,11.60
2013,05,07,03,37,11.60
2013,05,07,03,38,11.60
2013,05,07,03,39,11.60
2013,05,07,03,40,11.60
2013,05,07,03,41,11.60
2013,05,07,03,42,11.60
2013,05,07,03,43,11.60
2013,05,07,03,44,11.60
2013,05,07,03,45,11.60
2013,05,07,03,46,11.60
2013,05,07,03,47,11.60
2013,05,07,03,48,11.60
2013,05,07,03,49,11.60
2013,05,07,03,50,11.60
2013,05,07,03,51,11.50
2013,05,07,03,52,11.50
2013,05,07,03,53,11.50
2013,05,07,03,54,11.50
2013,05,07,03,55,11.50
2013,05,07,03,56,11.50
2013,05,07,03,57,11.40
2013,05,07,03,58,11.40
2013,05,07,03,59,11.40
2013,05,07,04,00,11.40
2013,05,07,04,01,11.40
2013,05,07,04,02,11.30
2013,05,07,04,03,11.30
2013,05,07,04,04,11.30
2013,05,07,04,05,11.30
2013,05,07,04,06,11.30
2013,05,07,04,07,11.30
2013,05,07,04,08,11.30
2013,05,07,04,09,11.20
2013,05,07,04,10,11.20
2013,05,07,04,11,11.20
2013,05,07,04,12,11.20
2013,05,07,04,13,11.20
2013,05,07,04,14,11.10
2013,05,07,04,15,11.10
2013,05,07,04,16,11.10
2013,05,07,04,17,11.10
2013,05,07,04,18,11.10
2013,05,07,04,19,11.10
2013,05,07,04,20,11.00
2013,05,07,04,21,11.00
2013,05,07,04,22,10.90
2013,05,07,04,23,10.90
2013,05,07,04,24,10.90
2013,05,07,04,25,10.90
2013,05,07,04,26,10.90
2013,05,07,04,27,10.90
2013,05,07,04,28,10.80
2013,05,07,04,29,10.80
2013,05,07,04,30,10.80
2013,05,07,04,31,10.80
2013,05,07,04,32,10.80
2013,05,07,04,33,10.80
2013,05,07,04,34,10.80
2013,05,07,04,35,10.80
2013,05,07,04,36,10.80
2013,05,07,04,37,10.80
2013,05,07,04,38,10.80
2013,05,07,04,39,10.80
2013,05,07,04,40,10.80
2013,05,07,04,41,10.80
2013,05,07,04,42,10.70
2013,05,07,04,43,10.70
2013,05,07,04,44,10.70
2013,05,07,04,45,10.60
2013,05,07,04,46,10.60
2013,05,07,04,47,10.50
2013,05,07,04,48,10.50
2013,05,07,04,49,10.40
2013,05,07,04,50,10.40
2013,05,07,04,51,10.30
2013,05,07,04,52,10.30
2013,05,07,04,53,10.30
2013,05,07,04,54,10.20
2013,05,07,04,55,10.20
2013,05,07,04,56,10.20
2013,05,07,04,57,10.20
2013,05,07,04,58,10.10
2013,05,07,04,59,10.10
2013,05,07,05,00,10.10
2013,05,07,05,01,10.10
2013,05,07,05,02,10.10
2013,05,07,05,03,10.10
2013,05,07,05,04,10.10
2013,05,07,05,05,10.10
2013,05,07,05,06,10.10
2013,05,07,05,07,10.00
2013,05,07,05,08,10.00
2013,05,07,05,09,10.10
2013,05,07,05,10,10.00
2013,05,07,05,11,10.00
2013,05,07,05,12,10.00
2013,05,07,05,13,10.00
2013,05,07,05,14,10.00
2013,05,07,05,15,10.00
2013,05,07,05,16,9.90
2013,05,07,05,17,9.90
2013,05,07,05,18,9.90
2013,05,07,05,19,9.90
2013,05,07,05,20,9.90
2013,05,07,05,21,9.90
2013,05,07,05,22,9.90
2013,05,07,05,23,9.90
2013,05,07,05,24,9.90
2013,05,07,05,25,9.90
2013,05,07,05,26,9.90
2013,05,07,05,27,9.80
2013,05,07,05,28,9.80
2013,05,07,05,29,9.80
2013,05,07,05,30,9.80
2013,05,07,05,31,9.80
2013,05,07,05,32,9.80
2013,05,07,05,33,9.80
2013,05,07,05,34,9.80
2013,05,07,05,35,9.80
2013,05,07,05,36,9.70
2013,05,07,05,37,9.80
2013,05,07,05,38,9.70
2013,05,07,05,39,9.70
2013,05,07,05,40,9.70
2013,05,07,05,41,9.70
2013,05,07,05,42,9.70
2013,05,07,05,43,9.70
2013,05,07,05,44,9.70
2013,05,07,05,45,9.70
2013,05,07,05,46,9.70
2013,05,07,05,47,9.70
2013,05,07,05,48,9.70
2013,05,07,05,49,9.70
2013,05,07,05,50,9.70
2013,05,07,05,51,9.70
2013,05,07,05,52,9.70
2013,05,07,05,53,9.70
2013,05,07,05,54,9.70
2013,05,07,05,55,9.70
2013,05,07,05,56,9.60
2013,05,07,05,57,9.60
2013,05,07,05,58,9.60
2013,05,07,05,59,9.60
2013,05,07,06,00,9.60
2013,05,07,06,01,9.60
2013,05,07,06,02,9.60
2013,05,07,06,03,9.60
2013,05,07,06,04,9.60
2013,05,07,06,05,9.60
2013,05,07,06,06,9.50
2013,05,07,06,07,9.50
2013,05,07,06,08,9.50
2013,05,07,06,09,9.50
2013,05,07,06,10,9.50
2013,05,07,06,11,9.60
2013,05,07,06,12,9.60
2013,05,07,06,13,9.60
2013,05,07,06,14,9.60
2013,05,07,06,15,9.60
2013,05,07,06,16,9.60
2013,05,07,06,17,9.60
2013,05,07,06,18,9.60
2013,05,07,06,19,9.60
2013,05,07,06,20,9.60
2013,05,07,06,21,9.70
2013,05,07,06,22,9.70
2013,05,07,06,23,9.70
2013,05,07,06,24,9.70
2013,05,07,06,25,9.70
2013,05,07,06,26,9.70
2013,05,07,06,27,9.70
2013,05,07,06,28,9.70
2013,05,07,06,29,9.70
2013,05,07,06,30,9.70
2013,05,07,06,31,9.80
2013,05,07,06,32,9.80
2013,05,07,06,33,9.80
2013,05,07,06,34,9.80
2013,05,07,06,35,9.80
2013,05,07,06,36,9.80
2013,05,07,06,37,9.80
2013,05,07,06,38,9.90
2013,05,07,06,39,9.90
2013,05,07,06,40,9.90
2013,05,07,06,41,10.00
2013,05,07,06,42,10.00
2013,05,07,06,43,10.10
2013,05,07,06,44,10.10
2013,05,07,06,45,10.20
2013,05,07,06,46,10.30
2013,05,07,06,47,10.40
2013,05,07,06,48,10.40
2013,05,07,06,49,10.50
2013,05,07,06,50,10.60
2013,05,07,06,51,10.70
2013,05,07,06,52,10.80
2013,05,07,06,53,10.90
2013,05,07,06,54,10.90
2013,05,07,06,55,10.90
2013,05,07,06,56,10.90
2013,05,07,06,57,10.90
2013,05,07,06,58,10.90
2013,05,07,06,59,10.90
2013,05,07,07,00,10.90
2013,05,07,07,01,10.80
2013,05,07,07,02,10.80
2013,05,07,07,03,10.80
2013,05,07,07,04,10.80
2013,05,07,07,05,10.80
2013,05,07,07,06,10.80
2013,05,07,07,07,10.80
2013,05,07,07,08,10.80
2013,05,07,07,09,10.80
2013,05,07,07,10,10.90
2013,05,07,07,11,10.90
2013,05,07,07,12,10.90
2013,05,07,07,13,10.90
2013,05,07,07,14,10.90
2013,05,07,07,15,10.80
2013,05,07,07,16,10.80
2013,05,07,07,17,10.80
2013,05,07,07,18,10.80
2013,05,07,07,19,10.70
2013,05,07,07,20,10.70
2013,05,07,07,21,10.70
2013,05,07,07,22,10.70
2013,05,07,07,23,10.60
2013,05,07,07,24,10.60
2013,05,07,07,25,10.60
2013,05,07,07,26,10.60
2013,05,07,07,27,10.60
2013,05,07,07,28,10.60
2013,05,07,07,29,10.60
2013,05,07,07,30,10.60
2013,05,07,07,31,10.60
2013,05,07,07,32,10.60
2013,05,07,07,33,10.60
2013,05,07,07,34,10.60
2013,05,07,07,35,10.70
2013,05,07,07,36,10.70
2013,05,07,07,37,10.70
2013,05,07,07,38,10.80
2013,05,07,07,39,10.80
2013,05,07,07,40,10.80
2013,05,07,07,41,10.80
2013,05,07,07,42,10.80
2013,05,07,07,43,10.80
2013,05,07,07,44,10.80
2013,05,07,07,45,10.80
2013,05,07,07,46,10.80
2013,05,07,07,47,10.70
2013,05,07,07,48,10.70
2013,05,07,07,49,10.70
2013,05,07,07,50,10.60
2013,05,07,07,51,10.60
2013,05,07,07,52,10.60
2013,05,07,07,53,10.60
2013,05,07,07,54,10.70
2013,05,07,07,55,10.70
2013,05,07,07,56,10.70
2013,05,07,07,57,10.70
2013,05,07,07,58,10.70
2013,05,07,07,59,10.80
2013,05,07,08,00,10.80
2013,05,07,08,01,10.80
2013,05,07,08,02,10.80
2013,05,07,08,03,10.80
2013,05,07,08,04,10.80
2013,05,07,08,05,10.80
2013,05,07,08,06,10.80
2013,05,07,08,07,10.80
2013,05,07,08,08,10.80
2013,05,07,08,09,10.80
2013,05,07,08,10,10.80
2013,05,07,08,11,10.90
2013,05,07,08,12,10.90
2013,05,07,08,13,10.90
2013,05,07,08,14,11.00
2013,05,07,08,15,11.00
2013,05,07,08,16,11.00
2013,05,07,08,17,11.00
2013,05,07,08,18,11.10
2013,05,07,08,19,11.10
2013,05,07,08,20,11.20
2013,05,07,08,21,11.20
2013,05,07,08,22,11.20
2013,05,07,08,23,11.30
2013,05,07,08,24,11.30
2013,05,07,08,25,11.30
2013,05,07,08,26,11.40
2013,05,07,08,27,11.40
2013,05,07,08,28,11.40
2013,05,07,08,29,11.40
2013,05,07,08,30,11.40
2013,05,07,08,31,11.50
2013,05,07,08,32,11.50
2013,05,07,08,33,11.60
2013,05,07,08,34,11.60
2013,05,07,08,35,11.70
2013,05,07,08,36,11.70
2013,05,07,08,37,11.70
2013,05,07,08,38,11.70
2013,05,07,08,39,11.80
2013,05,07,08,40,11.80
2013,05,07,08,41,11.90
2013,05,07,08,42,12.00
2013,05,07,08,43,12.00
2013,05,07,08,44,12.00
2013,05,07,08,45,12.00
2013,05,07,08,46,11.90
2013,05,07,08,47,11.90
2013,05,07,08,48,12.00
2013,05,07,08,49,12.00
2013,05,07,08,50,12.10
2013,05,07,08,51,12.10
2013,05,07,08,52,12.10
2013,05,07,08,53,12.10
2013,05,07,08,54,12.10
2013,05,07,08,55,12.00
2013,05,07,08,56,12.00
2013,05,07,08,57,12.00
2013,05,07,08,58,12.00
2013,05,07,08,59,11.90
2013,05,07,09,00,11.90
2013,05,07,09,01,11.90
2013,05,07,09,02,12.00
2013,05,07,09,03,12.00
2013,05,07,09,04,12.00
2013,05,07,10,02,13.10
2013,05,07,10,03,13.00
2013,05,07,10,04,13.00
2013,05,07,10,05,13.00
2013,05,07,10,06,12.90
2013,05,07,10,07,12.80
2013,05,07,10,08,12.80
2013,05,07,10,09,12.80
2013,05,07,10,10,12.80
2013,05,07,10,11,12.80
2013,05,07,10,12,12.80
2013,05,07,10,13,12.80
2013,05,07,10,14,12.90
2013,05,07,10,15,12.90
2013,05,07,10,16,13.10
2013,05,07,10,17,13.20
2013,05,07,10,18,13.30
2013,05,07,10,19,13.40
2013,05,07,10,20,13.30
2013,05,07,10,21,13.30
2013,05,07,10,22,13.30
2013,05,07,10,23,13.30
2013,05,07,10,24,13.40
2013,05,07,10,25,13.40
2013,05,07,10,26,13.40
2013,05,07,10,27,13.50
2013,05,07,10,28,13.60
2013,05,07,10,29,13.70
2013,05,07,10,30,13.80
2013,05,07,10,31,13.90
2013,05,07,10,32,14.00
2013,05,07,10,33,14.10
2013,05,07,10,34,14.10
2013,05,07,10,35,14.20
2013,05,07,10,36,14.20
2013,05,07,10,37,14.30
2013,05,07,10,38,14.40
2013,05,07,10,39,14.40
2013,05,07,10,40,14.50
2013,05,07,10,41,14.50
2013,05,07,10,42,14.60
2013,05,07,10,43,14.60
2013,05,07,10,44,14.60
2013,05,07,10,45,14.70
2013,05,07,10,46,14.70
2013,05,07,10,47,14.80
2013,05,07,10,48,14.80
2013,05,07,10,49,14.80
2013,05,07,10,50,14.80
2013,05,07,10,51,14.70
2013,05,07,10,52,14.70
2013,05,07,10,53,14.70
2013,05,07,10,54,14.70
2013,05,07,10,55,14.70
2013,05,07,10,56,14.80
2013,05,07,10,57,14.80
2013,05,07,10,58,14.90
2013,05,07,10,59,15.00
2013,05,07,11,00,15.00
2013,05,07,11,01,15.10
2013,05,07,11,02,15.20
2013,05,07,11,03,15.30
2013,05,07,11,04,15.40
2013,05,07,11,05,15.50
2013,05,07,11,06,15.60
2013,05,07,11,07,15.60
2013,05,07,11,08,15.60
2013,05,07,11,09,15.70
2013,05,07,11,10,15.60
2013,05,07,11,11,15.60
2013,05,07,11,12,15.60
2013,05,07,11,13,15.70
2013,05,07,11,14,15.60
2013,05,07,11,15,15.60
2013,05,07,11,16,15.60
2013,05,07,11,17,15.60
2013,05,07,11,18,15.60
2013,05,07,11,19,15.70
2013,05,07,11,20,15.80
2013,05,07,11,21,15.90
2013,05,07,11,22,16.00
2013,05,07,11,23,16.10
2013,05,07,11,24,16.20
2013,05,07,11,25,16.20
2013,05,07,11,26,16.20
2013,05,07,11,27,16.10
2013,05,07,11,28,16.10
2013,05,07,11,29,16.00
2013,05,07,11,30,16.00
2013,05,07,11,31,16.00
2013,05,07,11,32,15.80
2013,05,07,11,33,15.80
2013,05,07,11,34,15.70
2013,05,07,11,35,15.60
2013,05,07,11,36,15.40
2013,05,07,11,37,15.30
2013,05,07,11,38,15.20
2013,05,07,11,39,15.20
2013,05,07,11,40,15.10
2013,05,07,11,41,15.10
2013,05,07,11,42,15.00
2013,05,07,11,43,15.00
2013,05,07,11,44,15.00
2013,05,07,11,45,14.90
2013,05,07,11,46,14.90
2013,05,07,11,47,14.80
2013,05,07,11,48,14.70
2013,05,07,11,49,14.60
2013,05,07,11,50,14.60
2013,05,07,11,51,14.50
2013,05,07,11,52,14.40
2013,05,07,11,53,14.40
2013,05,07,11,54,14.40
2013,05,07,11,55,14.40
2013,05,07,11,56,14.50
2013,05,07,11,57,14.50
2013,05,07,11,58,14.40
2013,05,07,11,59,14.30
2013,05,07,12,00,14.30
2013,05,07,12,01,14.30
2013,05,07,12,02,14.30
2013,05,07,12,03,14.30
2013,05,07,12,04,14.40
2013,05,07,12,05,14.50
2013,05,07,12,06,14.50
2013,05,07,12,07,14.40
2013,05,07,12,08,14.40
2013,05,07,12,09,14.40
2013,05,07,12,10,14.50
2013,05,07,12,11,14.50
2013,05,07,12,12,14.60
2013,05,07,12,13,14.60
2013,05,07,12,14,14.60
2013,05,07,12,15,14.60
2013,05,07,12,16,14.60
2013,05,07,12,17,14.50
2013,05,07,12,18,14.50
2013,05,07,12,19,14.40
2013,05,07,12,20,14.30
2013,05,07,12,21,14.30
2013,05,07,12,22,14.20
2013,05,07,12,23,14.20
2013,05,07,12,24,14.20
2013,05,07,12,25,14.20
2013,05,07,12,26,14.20
2013,05,07,12,27,14.20
2013,05,07,12,28,14.20
2013,05,07,12,29,14.20
2013,05,07,12,30,14.20
2013,05,07,12,31,14.20
2013,05,07,12,32,14.20
2013,05,07,12,33,14.20
2013,05,07,12,34,14.10
2013,05,07,12,35,14.10
2013,05,07,12,36,14.00
2013,05,07,12,37,14.00
2013,05,07,12,38,13.90
2013,05,07,12,39,13.90
2013,05,07,12,40,13.80
2013,05,07,12,41,13.70
2013,05,07,12,42,13.60
2013,05,07,12,43,13.50
2013,05,07,12,44,13.50
2013,05,07,12,45,13.50
2013,05,07,12,46,13.40
2013,05,07,12,47,13.30
2013,05,07,12,48,13.30
2013,05,07,12,49,13.30
2013,05,07,12,50,13.20
2013,05,07,12,51,13.20
2013,05,07,12,52,13.20
2013,05,07,12,53,13.30
2013,05,07,12,54,13.30
2013,05,07,12,55,13.30
2013,05,07,12,56,13.20
2013,05,07,12,57,13.20
2013,05,07,12,58,13.20
2013,05,07,12,59,13.20
2013,05,07,13,00,13.30
2013,05,07,13,01,13.30
2013,05,07,13,02,13.40
2013,05,07,13,03,13.40
2013,05,07,13,04,13.40
2013,05,07,13,05,13.40
2013,05,07,13,06,13.30
2013,05,07,13,07,13.30
2013,05,07,13,08,13.30
2013,05,07,13,09,13.30
2013,05,07,13,10,13.30
2013,05,07,13,11,13.30
2013,05,07,13,12,13.40
2013,05,07,13,13,13.40
2013,05,07,13,14,13.50
2013,05,07,13,15,13.50
2013,05,07,13,16,13.50
2013,05,07,13,17,13.40
2013,05,07,13,18,13.40
2013,05,07,13,19,13.50
2013,05,07,13,20,13.60
2013,05,07,13,21,13.70
2013,05,07,13,22,13.80
2013,05,07,13,23,14.00
2013,05,07,13,24,14.10
2013,05,07,13,25,14.10
2013,05,07,13,26,14.10
2013,05,07,13,27,14.10
2013,05,07,13,28,14.10
2013,05,07,13,29,14.10
2013,05,07,13,30,14.10
2013,05,07,13,31,14.10
2013,05,07,13,32,14.20
2013,05,07,13,33,14.30
2013,05,07,13,34,14.30
2013,05,07,13,35,14.40
2013,05,07,13,36,14.40
2013,05,07,13,37,14.40
2013,05,07,13,38,14.50
2013,05,07,13,39,14.50
2013,05,07,13,40,14.60
2013,05,07,13,41,14.60
2013,05,07,13,42,14.60
2013,05,07,13,43,14.60
2013,05,07,13,44,14.60
2013,05,07,13,45,14.50
2013,05,07,13,46,14.40
2013,05,07,13,47,14.30
2013,05,07,13,48,14.30
2013,05,07,13,49,14.30
2013,05,07,13,50,14.40
2013,05,07,13,51,14.30
2013,05,07,13,52,14.30
2013,05,07,13,53,14.40
2013,05,07,13,54,14.40
2013,05,07,13,55,14.40
2013,05,07,13,56,14.40
2013,05,07,13,57,14.40
2013,05,07,13,58,14.30
2013,05,07,13,59,14.30
2013,05,07,14,00,14.30
2013,05,07,14,01,14.30
2013,05,07,14,02,14.30
2013,05,07,14,03,14.40
2013,05,07,14,04,14.50
2013,05,07,14,05,14.50
2013,05,07,14,06,14.60
2013,05,07,14,07,14.60
2013,05,07,14,08,14.60
2013,05,07,14,09,14.60
2013,05,07,14,10,14.60
2013,05,07,14,11,14.60
2013,05,07,14,12,14.60
2013,05,07,14,13,14.70
2013,05,07,14,14,14.70
2013,05,07,14,15,14.70
2013,05,07,14,16,14.70
2013,05,07,14,17,14.70
2013,05,07,14,18,14.70
2013,05,07,14,19,14.70
2013,05,07,14,20,14.70
2013,05,07,14,21,14.80
2013,05,07,14,22,14.90
2013,05,07,14,23,14.80
2013,05,07,14,24,14.70
2013,05,07,14,25,14.50
2013,05,07,14,26,14.40
2013,05,07,14,27,14.30
2013,05,07,14,28,14.30
2013,05,07,14,29,14.30
2013,05,07,14,30,14.20
2013,05,07,14,31,14.20
2013,05,07,14,32,14.30
2013,05,07,14,33,14.30
2013,05,07,14,34,14.30
2013,05,07,14,35,14.40
2013,05,07,14,36,14.40
2013,05,07,14,37,14.40
2013,05,07,14,38,14.50
2013,05,07,14,39,14.60
2013,05,07,14,40,14.70
2013,05,07,14,41,14.80
2013,05,07,14,42,14.90
2013,05,07,14,43,15.00
2013,05,07,14,44,15.20
2013,05,07,14,45,15.20
2013,05,07,14,46,15.20
2013,05,07,14,47,15.10
2013,05,07,14,48,15.00
2013,05,07,14,49,14.90
2013,05,07,14,50,14.80
2013,05,07,14,51,14.70
2013,05,07,14,52,14.70
2013,05,07,14,53,14.60
2013,05,07,14,54,14.50
2013,05,07,14,55,14.50
2013,05,07,14,56,14.40
2013,05,07,14,57,14.40
2013,05,07,14,58,14.40
2013,05,07,14,59,14.40
2013,05,07,15,00,14.50
2013,05,07,15,01,14.50
2013,05,07,15,02,14.50
2013,05,07,15,03,14.70
2013,05,07,15,04,14.80
2013,05,07,15,05,14.90
2013,05,07,15,06,14.90
2013,05,07,15,07,15.00
2013,05,07,15,08,15.10
2013,05,07,15,09,15.20
2013,05,07,15,10,15.40
2013,05,07,15,11,15.40
2013,05,07,15,12,15.40
2013,05,07,15,13,15.40
2013,05,07,15,14,15.30
2013,05,07,15,15,15.30
2013,05,07,15,16,15.30
2013,05,07,15,17,15.30
2013,05,07,15,18,15.30
2013,05,07,15,19,15.30
2013,05,07,15,20,15.30
2013,05,07,15,21,15.30
2013,05,07,15,22,15.40
2013,05,07,15,23,15.60
2013,05,07,15,24,15.70
2013,05,07,15,25,15.80
2013,05,07,15,26,15.80
2013,05,07,15,27,15.80
2013,05,07,15,28,15.80
2013,05,07,15,29,15.70
2013,05,07,15,30,15.70
2013,05,07,15,31,15.70
2013,05,07,15,32,15.70
2013,05,07,15,33,15.70
2013,05,07,15,34,15.70
2013,05,07,15,35,15.60
2013,05,07,15,36,15.60
2013,05,07,15,37,15.60
2013,05,07,15,38,15.70
2013,05,07,15,39,15.80
2013,05,07,15,40,15.80
2013,05,07,15,41,15.80
2013,05,07,15,42,15.90
2013,05,07,15,43,16.00
2013,05,07,15,44,16.10
2013,05,07,15,45,16.10
2013,05,07,15,46,16.10
2013,05,07,15,47,16.00
2013,05,07,15,48,16.00
2013,05,07,15,49,15.90
2013,05,07,15,50,15.80
2013,05,07,15,51,15.70
2013,05,07,15,52,15.60
2013,05,07,15,53,15.60
2013,05,07,15,54,15.50
2013,05,07,15,55,15.50
2013,05,07,15,56,15.40
2013,05,07,15,57,15.30
2013,05,07,15,58,15.10
2013,05,07,15,59,15.10
2013,05,07,16,00,15.10
2013,05,07,16,01,15.20
2013,05,07,16,02,15.30
2013,05,07,16,03,15.30
2013,05,07,16,04,15.30
2013,05,07,16,05,15.10
2013,05,07,16,06,15.00
2013,05,07,16,07,14.80
2013,05,07,16,08,14.80
2013,05,07,16,09,14.90
2013,05,07,16,10,14.90
2013,05,07,16,11,14.90
2013,05,07,16,12,15.00
2013,05,07,16,13,15.10
2013,05,07,16,14,15.30
2013,05,07,16,15,15.40
2013,05,07,16,16,15.50
2013,05,07,16,17,15.50
2013,05,07,16,18,15.50
2013,05,07,16,19,15.60
2013,05,07,16,20,15.60
2013,05,07,16,21,15.70
2013,05,07,16,22,15.70
2013,05,07,16,23,15.70
2013,05,07,16,24,15.60
2013,05,07,16,25,15.50
2013,05,07,16,26,15.50
2013,05,07,16,27,15.40
2013,05,07,16,28,15.40
2013,05,07,16,29,15.40
2013,05,07,16,30,15.40
2013,05,07,16,31,15.50
2013,05,07,16,32,15.60
2013,05,07,16,33,15.60
2013,05,07,16,34,15.60
2013,05,07,16,35,15.50
2013,05,07,16,36,15.40
2013,05,07,16,37,15.30
2013,05,07,16,38,15.30
2013,05,07,16,39,15.20
2013,05,07,16,40,15.20
2013,05,07,16,41,15.20
2013,05,07,16,42,15.10
2013,05,07,16,43,15.10
2013,05,07,16,44,15.10
2013,05,07,16,45,15.00
2013,05,07,16,46,15.00
2013,05,07,16,47,14.90
2013,05,07,16,48,15.00
2013,05,07,16,49,15.10
2013,05,07,16,50,15.10
2013,05,07,16,51,15.20
2013,05,07,16,52,15.20
2013,05,07,16,53,15.30
2013,05,07,16,54,15.40
2013,05,07,16,55,15.40
2013,05,07,16,56,15.40
2013,05,07,16,57,15.50
2013,05,07,16,58,15.50
2013,05,07,16,59,15.60
2013,05,07,17,00,15.60
2013,05,07,17,01,15.60
2013,05,07,17,02,15.60
2013,05,07,17,03,15.70
2013,05,07,17,04,15.70
2013,05,07,17,05,15.70
2013,05,07,17,06,15.80
2013,05,07,17,07,15.70
2013,05,07,17,08,15.70
2013,05,07,17,09,15.80
2013,05,07,17,10,15.90
2013,05,07,17,11,15.90
2013,05,07,17,12,16.00
2013,05,07,17,13,16.00
2013,05,07,17,14,16.10
2013,05,07,17,15,16.10
2013,05,07,17,16,16.10
2013,05,07,17,17,16.00
2013,05,07,17,18,15.90
2013,05,07,17,19,15.90
2013,05,07,17,20,15.90
2013,05,07,17,21,15.90
2013,05,07,17,22,16.00
2013,05,07,17,23,16.10
2013,05,07,17,24,16.10
2013,05,07,17,25,16.20
2013,05,07,17,26,16.20
2013,05,07,17,27,16.20
2013,05,07,17,28,16.20
2013,05,07,17,29,16.20
2013,05,07,17,30,16.20
2013,05,07,17,31,16.20
2013,05,07,17,32,16.20
2013,05,07,17,33,16.30
2013,05,07,17,34,16.30
2013,05,07,17,35,16.30
2013,05,07,17,36,16.20
2013,05,07,17,37,16.20
2013,05,07,17,38,16.10
2013,05,07,17,39,16.10
2013,05,07,17,40,16.10
2013,05,07,17,41,16.00
2013,05,07,17,42,16.00
2013,05,07,17,43,16.00
2013,05,07,17,44,16.00
2013,05,07,17,45,16.10
2013,05,07,17,46,16.10
2013,05,07,17,47,16.10
2013,05,07,17,48,16.10
2013,05,07,17,49,16.20
2013,05,07,17,50,16.30
2013,05,07,17,51,16.50
2013,05,07,17,52,16.60
2013,05,07,17,53,16.60
2013,05,07,17,54,16.60
2013,05,07,17,55,16.50
2013,05,07,17,56,16.50
2013,05,07,17,57,16.50
2013,05,07,17,58,16.40
2013,05,07,17,59,16.40
2013,05,07,18,00,16.30
2013,05,07,18,01,16.30
2013,05,07,18,02,16.20
2013,05,07,18,03,16.20
2013,05,07,18,04,16.20
2013,05,07,18,05,16.20
2013,05,07,18,06,16.20
2013,05,07,18,07,16.20
2013,05,07,18,08,16.30
2013,05,07,18,09,16.30
2013,05,07,18,10,16.40
2013,05,07,18,11,16.50
2013,05,07,18,12,16.50
2013,05,07,18,13,16.60
2013,05,07,18,14,16.60
2013,05,07,18,15,16.70
2013,05,07,18,16,16.70
2013,05,07,18,17,16.70
2013,05,07,18,18,16.80
2013,05,07,18,19,16.80
2013,05,07,18,20,16.80